| time (UTC) | temp F | wind direction | speed MPH | gust MPH | rain 1hr in | rain 24hr in | rain mn in | humidity % | barometer mb |
| 20260903043021 | 77 | 214 | 0.0 | 0.0 | 0.00 | 0.00 | 0.00 | 88 | 1012.0 |
| 20260903041519 | 77 | 214 | 1.0 | 0.0 | 0.00 | 0.00 | 0.00 | 87 | 1011.8 |
| 20260903040057 | 76 | 219 | 2.0 | 0.0 | 0.00 | 0.00 | 0.00 | 91 | 1011.7 |
| 20260903034534 | 75 | 221 | 0.0 | 0.0 | 0.00 | 0.00 | 0.00 | 92 | 1011.8 |
| 20260903033031 | 75 | 221 | 0.0 | 0.0 | 0.00 | 0.00 | 0.00 | 91 | 1011.9 |
| 20260903031518 | 76 | 221 | 0.0 | 0.0 | 0.00 | 0.00 | 0.00 | 91 | 1012.1 |
| 20260903030108 | 76 | 221 | 0.0 | 0.0 | 0.00 | 0.00 | 0.00 | 90 | 1012.3 |
| 20260903024543 | 76 | 221 | 0.0 | 0.0 | 0.00 | 0.00 | 0.00 | 89 | 1012.6 |
| 20260903023038 | 77 | 221 | 0.0 | 0.0 | 0.00 | 0.00 | 0.00 | 88 | 1012.7 |
| 20260903021530 | 77 | 221 | 0.0 | 0.0 | 0.00 | 0.00 | 0.00 | 87 | 1012.6 |
| 20260903020017 | 77 | 221 | 1.0 | 0.0 | 0.00 | 0.00 | 0.00 | 89 | 1012.6 |
| 20260903014517 | 77 | 222 | 0.0 | 0.0 | 0.00 | 0.00 | 0.00 | 89 | 1012.7 |
| 20260903013054 | 77 | 221 | 0.0 | 0.0 | 0.00 | 0.00 | 0.00 | 89 | 1012.6 |
| 20260903011559 | 78 | 222 | 0.0 | 0.0 | 0.00 | 0.00 | 0.00 | 88 | 1012.5 |
| 20260903010032 | 78 | 222 | 0.0 | 0.0 | 0.00 | 0.00 | 0.00 | 86 | 1012.5 |
| 20260903004523 | 79 | 222 | 0.0 | 0.0 | 0.00 | 0.00 | 0.00 | 85 | 1012.5 |
| 20260903003011 | 80 | 222 | 0.0 | 0.0 | 0.00 | 0.00 | 0.00 | 84 | 1012.3 |
| 20260903001507 | 81 | 222 | 0.0 | 0.0 | 0.00 | 0.00 | 0.00 | 81 | 1012.3 |
| 20260903000008 | 83 | 222 | 0.0 | 0.0 | 0.00 | 0.00 | 0.00 | 79 | 1012.1 |
| 20260902234547 | 84 | 222 | 0.0 | 0.0 | 0.00 | 0.00 | 0.00 | 73 | 1012.2 |
| 20260902233048 | 85 | 222 | 1.0 | 0.0 | 0.00 | 0.00 | 0.00 | 71 | 1012.1 |
| 20260902231540 | 86 | 221 | 2.0 | 0.0 | 0.00 | 0.00 | 0.00 | 70 | 1012.0 |
| 20260902230028 | 87 | 230 | 2.0 | 0.0 | 0.00 | 0.00 | 0.00 | 70 | 1011.9 |
| 20260902224522 | 87 | 233 | 2.0 | 0.0 | 0.00 | 0.00 | 0.00 | 69 | 1011.9 |
| 20260902223009 | 88 | 236 | 3.0 | 0.0 | 0.00 | 0.00 | 0.00 | 68 | 1012.0 |
| 20260902221558 | 89 | 225 | 3.0 | 0.0 | 0.00 | 0.00 | 0.00 | 67 | 1012.0 |
| 20260902221501 | 88 | 234 | 3.0 | 0.0 | 0.00 | 0.00 | 0.00 | 67 | 1012.1 |
| 20260902220049 | 89 | 228 | 3.0 | 0.0 | 0.00 | 0.00 | 0.00 | 66 | 1011.9 |
| 20260902214540 | 91 | 235 | 3.0 | 0.0 | 0.00 | 0.00 | 0.00 | 64 | 1012.0 |
| 20260902213028 | 91 | 240 | 3.0 | 0.0 | 0.00 | 0.00 | 0.00 | 66 | 1012.0 |
| 20260902211529 | 92 | 208 | 3.0 | 0.0 | 0.00 | 0.00 | 0.00 | 65 | 1012.0 |
| 20260902210008 | 91 | 240 | 3.0 | 0.0 | 0.00 | 0.00 | 0.00 | 65 | 1012.1 |
| 20260902204554 | 91 | 214 | 4.0 | 0.0 | 0.00 | 0.00 | 0.00 | 65 | 1012.3 |
| 20260902203048 | 91 | 211 | 4.0 | 0.0 | 0.00 | 0.00 | 0.00 | 64 | 1012.3 |
| 20260902201539 | 92 | 271 | 3.0 | 0.0 | 0.00 | 0.00 | 0.00 | 64 | 1012.5 |
| 20260902200033 | 92 | 260 | 3.0 | 0.0 | 0.00 | 0.00 | 0.00 | 65 | 1012.7 |
| 20260902194519 | 91 | 225 | 3.0 | 0.0 | 0.00 | 0.00 | 0.00 | 67 | 1012.8 |
| 20260902193058 | 92 | 200 | 3.0 | 0.0 | 0.00 | 0.00 | 0.00 | 66 | 1012.9 |
| 20260902191548 | 92 | 212 | 3.0 | 0.0 | 0.00 | 0.00 | 0.00 | 65 | 1013.0 |
| 20260902190042 | 92 | 267 | 2.0 | 0.0 | 0.00 | 0.00 | 0.00 | 65 | 1013.1 |
| 20260902184527 | 91 | 203 | 4.0 | 0.0 | 0.00 | 0.00 | 0.00 | 69 | 1013.3 |
| 20260902183022 | 91 | 297 | 4.0 | 0.0 | 0.00 | 0.00 | 0.00 | 69 | 1013.5 |
| 20260902181504 | 90 | 245 | 3.0 | 0.0 | 0.00 | 0.00 | 0.00 | 69 | 1013.5 |
| 20260902180113 | 91 | 195 | 2.0 | 0.0 | 0.00 | 0.00 | 0.00 | 69 | 1013.6 |
| 20260902174537 | 90 | 219 | 3.0 | 0.0 | 0.00 | 0.00 | 0.00 | 71 | 1014.0 |
| 20260902173030 | 90 | 211 | 4.0 | 0.0 | 0.00 | 0.00 | 0.00 | 71 | 1014.2 |
| 20260902171512 | 90 | 217 | 4.0 | 0.0 | 0.00 | 0.00 | 0.00 | 71 | 1014.3 |
| 20260902170056 | 88 | 205 | 4.0 | 0.0 | 0.00 | 0.00 | 0.00 | 72 | 1014.4 |
| 20260902164542 | 87 | 230 | 3.0 | 0.0 | 0.00 | 0.00 | 0.00 | 74 | 1014.5 |
| 20260902163028 | 87 | 230 | 4.0 | 0.0 | 0.00 | 0.00 | 0.00 | 72 | 1014.5 |
| 20260902161521 | 87 | 236 | 3.0 | 0.0 | 0.00 | 0.00 | 0.00 | 76 | 1014.5 |
| 20260902160010 | 86 | 226 | 3.0 | 0.0 | 0.00 | 0.00 | 0.00 | 76 | 1014.6 |
| 20260902154559 | 86 | 204 | 3.0 | 0.0 | 0.00 | 0.00 | 0.00 | 77 | 1014.7 |
| 20260902154503 | 86 | 202 | 3.0 | 0.0 | 0.00 | 0.00 | 0.00 | 77 | 1014.8 |
| 20260902153052 | 85 | 188 | 3.0 | 0.0 | 0.00 | 0.00 | 0.00 | 77 | 1014.8 |
| 20260902151544 | 84 | 182 | 4.0 | 0.0 | 0.00 | 0.00 | 0.00 | 78 | 1014.8 |
| 20260902150036 | 84 | 217 | 3.0 | 0.0 | 0.00 | 0.00 | 0.00 | 79 | 1014.8 |
| 20260902144529 | 83 | 185 | 3.0 | 0.0 | 0.00 | 0.00 | 0.00 | 81 | 1014.6 |
| 20260902143003 | 82 | 209 | 3.0 | 0.0 | 0.00 | 0.00 | 0.00 | 83 | 1014.7 |
| 20260902141548 | 80 | 207 | 4.0 | 0.0 | 0.00 | 0.00 | 0.00 | 83 | 1014.7 |
| 20260902140025 | 80 | 225 | 3.0 | 0.0 | 0.00 | 0.00 | 0.00 | 85 | 1014.7 |
| 20260902134526 | 79 | 222 | 2.0 | 0.0 | 0.00 | 0.00 | 0.00 | 87 | 1014.8 |
| 20260902133057 | 78 | 195 | 2.0 | 0.0 | 0.00 | 0.00 | 0.00 | 88 | 1014.9 |
| 20260902133002 | 78 | 190 | 2.0 | 0.0 | 0.00 | 0.00 | 0.00 | 89 | 1014.8 |
| 20260902131547 | 77 | 195 | 2.0 | 0.0 | 0.00 | 0.00 | 0.00 | 90 | 1014.8 |
| 20260902130033 | 76 | 195 | 2.0 | 0.0 | 0.00 | 0.00 | 0.00 | 92 | 1014.8 |
| 20260902124521 | 75 | 186 | 1.0 | 0.0 | 0.00 | 0.00 | 0.00 | 93 | 1014.6 |
| 20260902123011 | 74 | 186 | 1.0 | 0.0 | 0.00 | 0.00 | 0.00 | 95 | 1014.8 |
| 20260902121612 | 73 | 184 | 1.0 | 0.0 | 0.00 | 0.00 | 0.00 | 96 | 1014.7 |
| 20260902121501 | 73 | 184 | 1.0 | 0.0 | 0.00 | 0.00 | 0.00 | 96 | 1014.7 |
| 20260902120036 | 73 | 183 | 1.0 | 0.0 | 0.00 | 0.00 | 0.00 | 96 | 1014.9 |
| 20260902114534 | 72 | 182 | 2.0 | 0.0 | 0.00 | 0.00 | 0.00 | 97 | 1014.7 |
| 20260902113031 | 72 | 212 | 1.0 | 0.0 | 0.00 | 0.00 | 0.00 | 97 | 1014.6 |
| 20260902111603 | 71 | 213 | 0.0 | 0.0 | 0.00 | 0.00 | 0.00 | 97 | 1014.5 |
| 20260902111501 | 71 | 213 | 0.0 | 0.0 | 0.00 | 0.00 | 0.00 | 97 | 1014.4 |
| 20260902110055 | 71 | 214 | 0.0 | 0.0 | 0.00 | 0.00 | 0.00 | 97 | 1014.3 |
| 20260902104549 | 71 | 214 | 0.0 | 0.0 | 0.00 | 0.00 | 0.00 | 96 | 1014.1 |
| 20260902103030 | 71 | 214 | 0.0 | 0.0 | 0.00 | 0.00 | 0.00 | 97 | 1014.2 |
| 20260902101530 | 71 | 217 | 0.0 | 0.0 | 0.00 | 0.00 | 0.00 | 96 | 1014.1 |
| 20260902100021 | 71 | 217 | 0.0 | 0.0 | 0.00 | 0.00 | 0.00 | 96 | 1014.3 |
| 20260902094517 | 71 | 217 | 0.0 | 0.0 | 0.00 | 0.00 | 0.00 | 96 | 1014.1 |
| 20260902093006 | 71 | 217 | 0.0 | 0.0 | 0.00 | 0.00 | 0.00 | 96 | 1014.2 |
| 20260902091556 | 71 | 217 | 0.0 | 0.0 | 0.00 | 0.00 | 0.00 | 96 | 1014.1 |
| 20260902090054 | 71 | 217 | 0.0 | 0.0 | 0.00 | 0.00 | 0.00 | 96 | 1014.1 |
| 20260902090001 | 71 | 217 | 0.0 | 0.0 | 0.00 | 0.00 | 0.00 | 96 | 1014.1 |
| 20260902084557 | 71 | 217 | 0.0 | 0.0 | 0.00 | 0.00 | 0.00 | 96 | 1014.1 |
| 20260902083042 | 71 | 217 | 0.0 | 0.0 | 0.00 | 0.00 | 0.00 | 96 | 1014.0 |
| 20260902081531 | 72 | 217 | 0.0 | 0.0 | 0.00 | 0.00 | 0.00 | 96 | 1013.9 |
| 20260902080026 | 72 | 217 | 0.0 | 0.0 | 0.00 | 0.00 | 0.00 | 96 | 1013.8 |
| 20260902074517 | 72 | 217 | 0.0 | 0.0 | 0.00 | 0.00 | 0.00 | 96 | 1013.7 |
| 20260902073017 | 72 | 217 | 0.0 | 0.0 | 0.00 | 0.00 | 0.00 | 95 | 1013.7 |
| 20260902071513 | 72 | 217 | 0.0 | 0.0 | 0.00 | 0.00 | 0.00 | 95 | 1013.8 |
| 20260902070056 | 73 | 217 | 0.0 | 0.0 | 0.00 | 0.00 | 0.00 | 95 | 1013.7 |
| 20260902064549 | 73 | 217 | 0.0 | 0.0 | 0.00 | 0.00 | 0.00 | 94 | 1013.9 |
| 20260902063046 | 74 | 217 | 0.0 | 0.0 | 0.00 | 0.00 | 0.00 | 94 | 1014.0 |
| 20260902061522 | 74 | 217 | 0.0 | 0.0 | 0.00 | 0.00 | 0.00 | 94 | 1014.1 |
| 20260902060016 | 74 | 217 | 0.0 | 0.0 | 0.00 | 0.00 | 0.00 | 94 | 1014.0 |
| 20260902054557 | 74 | 217 | 0.0 | 0.0 | 0.00 | 0.00 | 0.00 | 93 | 1013.9 |
| 20260902053052 | 74 | 217 | 0.0 | 0.0 | 0.00 | 0.00 | 0.00 | 93 | 1013.6 |
| 20260902051540 | 74 | 218 | 1.0 | 0.0 | 0.00 | 0.00 | 0.00 | 94 | 1013.5 |
| 20260902050030 | 75 | 219 | 0.0 | 0.0 | 0.00 | 0.00 | 0.00 | 94 | 1013.5 |
| 20260902044520 | 75 | 219 | 0.0 | 0.0 | 0.00 | 0.00 | 0.00 | 93 | 1013.6 |